GFSSE_850_thetae_036.txt.gz
Theta_e
332 328 329 327 326 330 334 333 340 330 329 332 338 340 327 324 328 332 335 339 334 333 340 339 343 337 336 336 336 337 339 336 336 338 338 334 334 329 332 334 334 335 331
329 326 328 329 326 326 332 336 331 326 327 326 327 328 323 319 324 328 333 336 338 336 339 339 336 335 335 333 332 334 334 334 334 338 338 337 336 334 334 336 335 338 336
328 327 327 330 329 327 328 330 327 325 325 325 326 323 320 318 324 326 326 333 340 338 336 337 334 333 332 332 332 332 333 333 333 334 338 339 337 337 337 339 339 339 339
326 326 326 330 331 330 327 327 324 324 324 325 323 317 314 315 318 323 326 327 332 335 336 336 337 334 334 336 338 340 342 338 334 336 337 336 337 338 338 339 336 337 340
328 323 324 326 331 331 326 324 324 325 325 322 317 312 311 312 316 319 322 322 325 336 337 335 337 335 339 337 339 341 342 340 339 338 338 339 337 339 339 339 336 337 338
330 326 323 321 328 331 327 326 326 326 322 319 313 310 310 310 310 314 317 318 322 324 330 333 335 339 339 339 338 339 340 340 336 334 337 339 337 339 338 335 335 337 337
329 331 335 322 327 328 330 329 329 327 321 318 313 311 311 311 310 310 310 311 312 316 321 325 333 340 337 337 337 337 338 338 336 334 332 334 336 339 337 335 335 337 338
331 332 334 336 339 339 338 329 331 330 326 320 315 312 311 311 312 311 311 310 309 309 311 321 327 337 335 336 335 337 337 337 337 336 334 332 333 335 334 333 333 333 336
333 336 336 337 340 340 337 333 331 331 331 323 318 313 311 311 311 311 311 311 310 309 309 310 323 336 338 335 335 336 336 337 336 334 331 325 326 331 333 332 330 331 334
336 337 339 341 343 343 339 329 327 326 331 329 322 316 312 311 311 311 311 311 311 310 309 309 310 340 339 338 337 335 335 336 335 333 330 322 332 334 334 333 330 333 332
338 339 340 341 343 344 341 334 328 327 325 324 330 324 316 312 311 312 311 311 311 311 310 309 309 310 316 316 330 332 334 335 336 333 331 323 322 322 327 333 335 335 336
339 340 341 343 344 344 343 337 330 329 329 328 324 330 326 317 312 311 312 311 311 311 311 310 309 309 309 312 318 326 327 331 333 333 329 324 324 323 319 329 332 333 335
341 342 342 343 344 344 344 342 336 332 331 331 328 323 330 329 321 315 312 312 311 311 311 311 310 309 309 310 312 318 323 325 326 327 324 324 323 321 315 316 320 332 332
337 339 340 343 344 344 344 344 340 336 334 334 334 329 328 328 329 322 314 312 312 311 310 311 311 310 309 309 310 312 316 319 320 319 318 320 316 313 309 310 315 321 330
324 329 334 338 339 339 344 345 343 339 336 336 336 333 331 330 327 322 320 315 313 312 311 310 311 311 310 309 308 308 309 311 312 312 313 313 311 309 307 306 311 317 322
318 321 324 327 331 335 338 342 344 343 339 337 337 336 334 333 329 326 323 318 315 313 312 311 310 310 311 310 309 307 307 307 308 308 308 308 308 306 305 305 306 308 312
312 315 319 324 328 329 336 342 344 343 343 340 339 338 338 336 334 331 327 322 320 317 313 312 311 310 310 310 310 309 308 307 306 306 306 306 306 305 305 305 304 303 303
308 310 311 315 322 326 326 329 335 337 338 341 341 340 340 339 337 335 332 329 324 322 318 315 312 311 311 310 310 310 309 308 307 306 306 306 306 306 305 305 304 302 302
305 305 306 307 309 311 314 316 322 325 329 332 335 337 339 338 338 336 333 330 326 324 323 319 315 312 311 311 310 310 309 309 308 307 307 306 306 306 306 305 304 304 302
304 303 303 303 304 305 307 309 312 316 318 320 324 328 332 334 335 336 335 330 325 322 320 320 320 316 313 312 311 310 309 309 309 308 308 307 306 306 306 305 305 305 304
304 304 303 303 303 303 303 303 305 306 309 312 314 316 319 324 327 331 334 331 327 324 321 318 317 316 317 314 311 311 310 309 309 309 309 308 307 306 305 306 305 305 304
304 304 303 303 303 303 303 303 302 303 304 305 306 307 310 313 316 320 322 326 327 322 322 319 317 315 317 316 313 311 309 310 310 309 309 309 308 306 305 306 305 305 304
304 303 303 303 303 302 302 302 302 302 302 303 304 304 304 304 306 310 313 317 323 320 317 317 315 314 314 316 314 312 309 309 309 309 309 309 308 307 305 305 306 305 304
304 303 303 303 303 302 302 302 303 304 303 302 301 302 304 304 303 304 305 308 312 315 317 318 313 314 313 313 314 313 313 312 309 309 309 309 308 308 306 306 306 305 304
304 303 303 303 303 303 302 302 302 303 303 302 302 302 305 306 305 304 304 304 304 306 311 314 315 313 312 312 312 313 314 312 311 309 309 308 309 308 308 307 306 306 305
304 303 303 303 303 302 302 302 302 302 302 302 302 301 304 305 305 304 303 304 304 304 305 307 311 313 316 314 312 312 312 314 314 312 310 310 309 308 307 307 306 306 305

GFSSE_850_thetae_039.txt.gz
Theta_e
327 327 326 325 326 330 332 334 341 330 327 341 342 339 324 326 340 338 342 335 338 343 345 343 338 338 340 335 338 341 341 340 338 339 334 333 329 332 334 334 336 335 330
328 325 327 326 324 326 330 339 335 326 329 326 327 325 321 321 332 339 341 341 337 339 343 343 337 335 335 334 336 336 335 334 337 337 336 334 333 334 336 335 338 338 335
327 325 327 327 326 325 328 334 328 325 325 325 325 321 319 325 340 330 333 342 340 339 342 342 334 333 331 331 332 333 334 333 335 339 339 337 336 337 338 338 338 340 337
328 327 327 329 328 327 327 327 325 323 324 326 325 318 315 316 320 324 340 340 340 340 339 341 338 334 335 336 336 339 337 334 334 335 335 336 339 338 339 338 335 339 337
327 328 326 328 329 328 325 324 323 323 324 324 320 314 311 313 315 320 329 336 336 340 337 340 341 338 340 339 339 341 341 339 338 338 339 337 338 338 339 337 335 337 336
328 327 325 323 328 328 325 323 323 325 324 321 316 311 310 310 311 316 320 323 339 334 339 337 339 338 339 338 338 340 341 339 336 336 338 338 338 341 337 334 335 337 337
327 328 330 323 327 329 330 328 327 327 324 320 316 312 310 310 310 310 311 312 313 318 325 326 336 339 337 338 336 337 340 339 336 331 329 333 335 339 338 334 333 337 339
330 329 331 334 337 336 334 333 329 330 329 322 318 314 311 311 311 311 311 310 310 310 312 321 331 337 335 336 335 337 336 337 336 334 332 331 330 333 334 332 331 332 335
334 335 336 337 337 335 334 327 327 329 329 330 323 318 313 311 311 311 311 311 310 309 309 313 327 334 337 334 334 336 337 336 337 335 331 329 322 328 332 333 331 330 331
336 338 339 340 342 342 340 333 328 325 325 328 330 324 319 313 311 312 311 311 311 311 310 309 314 319 337 337 336 336 337 336 336 334 331 330 327 332 334 334 331 332 329
338 339 340 341 342 343 341 340 332 330 329 328 330 328 323 318 313 311 311 311 311 311 311 310 309 310 330 330 334 331 335 335 335 334 333 331 323 327 329 331 334 334 337
340 340 341 341 342 343 343 343 340 332 330 330 330 329 328 321 314 312 311 311 311 311 311 312 311 309 309 311 314 325 330 334 338 334 333 330 323 322 320 321 331 334 334
340 340 340 341 341 342 343 343 343 341 334 332 333 332 328 328 321 316 312 311 312 311 311 311 311 311 310 309 310 313 316 322 325 330 329 326 322 322 318 316 319 330 333
334 337 339 340 340 341 343 343 344 344 341 336 334 334 332 328 327 324 318 313 312 312 311 310 311 311 311 310 310 310 312 316 320 322 322 320 320 318 312 309 309 313 328
320 322 325 329 333 336 340 344 347 345 344 342 338 336 335 333 330 328 325 320 315 313 312 310 310 310 311 311 310 309 309 310 312 314 315 314 314 312 309 307 307 311 319
314 317 320 322 325 327 332 344 343 344 346 343 342 339 337 337 334 332 329 327 324 317 314 313 311 310 310 310 310 310 309 308 307 308 309 309 309 308 307 306 305 307 311
308 310 314 317 322 325 327 329 337 337 338 340 340 340 341 339 338 336 334 329 325 323 321 317 313 311 310 310 310 310 309 309 308 307 306 306 306 306 306 305 305 304 305
304 305 306 308 309 312 316 321 326 328 332 335 337 337 337 340 339 337 336 334 330 321 320 321 318 315 313 311 310 310 310 309 309 308 308 306 306 306 306 305 305 304 303
304 304 304 304 304 304 306 309 313 317 320 323 326 329 332 335 337 337 336 336 334 328 319 320 320 318 315 314 312 310 310 310 309 309 308 308 307 306 306 306 305 305 303
304 304 304 304 304 304 304 303 303 304 307 311 315 318 321 324 327 330 332 333 334 333 326 320 320 319 318 315 313 312 311 310 310 309 309 308 308 307 307 306 306 305 305
304 303 303 303 303 303 303 303 303 303 303 302 304 306 308 312 316 318 321 324 328 333 331 324 320 319 317 316 313 313 313 312 311 310 309 309 309 308 307 306 306 306 305
304 303 303 303 303 303 303 302 302 301 302 302 302 302 303 304 305 307 311 314 318 321 327 327 323 320 318 317 313 313 311 314 316 315 312 310 309 309 308 307 306 305 305
304 303 303 303 303 303 302 302 302 302 302 301 301 301 301 301 303 304 304 305 307 311 317 320 320 321 319 316 314 311 311 312 317 317 313 310 309 309 308 307 306 305 306
304 303 303 303 303 303 303 302 302 302 302 302 301 301 301 302 302 303 304 304 304 304 306 310 315 317 314 314 314 312 311 312 312 314 312 311 310 309 309 308 307 305 306
304 304 303 303 303 303 303 303 302 303 302 302 302 302 302 301 301 301 302 303 303 304 304 304 307 311 313 313 312 311 311 311 311 310 312 311 311 311 309 309 308 307 306
304 304 303 303 303 302 302 303 303 303 302 302 302 302 302 302 301 300 299 299 301 302 304 304 304 305 308 310 312 313 312 310 310 311 311 311 314 312 311 309 309 308 307

GFSSE_850_thetae_042.txt.gz
Theta_e
325 326 324 327 330 332 332 336 339 332 341 342 345 330 323 333 340 341 342 334 343 344 341 342 340 345 341 343 343 341 341 342 341 339 335 330 333 335 335 338 341 334 329
328 326 325 325 326 330 330 339 343 339 342 335 332 324 321 331 338 340 342 340 337 343 343 342 336 339 341 339 339 337 337 339 338 336 334 333 335 337 337 339 339 337 333
329 331 327 325 324 327 335 343 336 329 328 327 325 320 320 339 339 333 338 342 339 341 342 341 333 333 332 332 332 333 334 335 337 338 340 346 342 337 339 336 337 338 335
330 340 344 327 326 325 330 333 327 324 325 328 324 316 315 318 323 334 339 340 341 339 341 342 336 342 341 335 338 337 334 334 334 335 343 343 344 338 339 336 337 337 336
335 340 334 329 328 328 325 324 324 324 325 326 320 313 311 313 316 321 333 337 339 339 336 341 337 341 339 339 341 341 339 338 338 343 345 344 344 340 339 335 338 338 336
342 338 324 326 328 328 326 323 323 324 325 323 318 312 310 310 311 314 318 321 334 332 338 337 339 338 339 338 339 340 341 338 339 342 344 340 342 340 335 334 335 337 338
343 343 331 322 329 329 329 329 327 326 326 322 318 314 311 311 311 311 311 312 311 317 321 326 338 338 338 339 337 338 341 339 345 340 338 340 341 338 339 335 332 335 338
342 342 342 334 335 335 334 334 330 331 330 328 321 317 313 311 311 311 311 311 310 310 311 318 330 338 335 337 337 338 338 338 340 339 337 336 326 330 332 332 330 331 333
344 344 344 345 339 336 337 331 331 332 333 333 327 319 315 312 311 311 311 311 311 310 309 311 322 328 336 333 336 336 338 337 338 337 336 335 323 326 332 334 333 329 330
345 345 346 347 348 345 348 339 331 331 328 329 332 326 320 315 312 311 311 311 311 311 310 309 311 318 329 335 334 336 337 337 337 336 336 335 323 333 333 336 334 331 326
345 346 346 346 347 349 349 347 340 331 330 330 329 328 328 325 320 312 312 311 310 311 311 310 309 309 313 324 322 333 335 340 337 336 335 332 328 323 331 332 332 335 337
336 338 341 347 347 348 348 347 348 349 344 339 341 339 337 335 326 316 312 311 311 310 310 311 311 310 310 328 327 313 322 330 336 335 334 331 328 323 321 320 323 331 334
332 337 339 340 341 345 347 345 349 347 348 345 342 341 339 331 328 326 321 316 312 311 311 310 311 311 310 311 316 323 328 331 332 326 333 326 327 323 321 320 317 326 331
322 326 328 331 334 337 341 350 348 346 345 346 343 340 340 338 334 331 328 323 319 314 312 311 310 310 310 310 312 318 326 328 330 331 331 323 321 320 318 315 313 316 319
315 317 320 322 324 332 338 344 345 344 345 345 344 343 339 337 338 336 331 328 323 319 316 314 312 310 310 310 310 311 319 323 325 327 327 315 315 314 313 310 308 309 313
311 312 313 316 320 324 328 330 339 340 342 342 343 343 342 340 338 338 336 333 329 323 319 316 314 313 311 310 310 310 311 316 318 316 313 311 310 310 309 308 307 306 310
308 308 308 309 310 314 317 322 327 331 334 337 338 338 339 339 340 340 337 336 333 328 322 318 316 315 312 311 310 310 310 309 310 309 308 307 307 307 307 307 306 306 306
307 307 306 306 306 307 307 309 311 314 317 322 326 329 331 334 336 336 338 336 336 334 331 323 317 317 316 313 312 311 310 310 310 309 309 309 308 307 307 306 306 306 305
306 307 307 306 306 306 306 307 307 307 307 308 310 313 317 322 325 328 332 335 334 335 334 330 322 318 316 315 314 312 311 310 310 309 309 309 309 308 308 307 307 306 306
305 306 306 306 306 306 306 306 306 306 306 306 307 305 305 308 310 314 318 321 324 328 331 331 327 321 318 316 314 312 312 311 310 310 309 309 309 309 308 308 308 307 306
305 305 305 305 305 305 305 306 305 305 305 305 304 302 303 304 305 304 307 311 314 316 319 326 328 324 320 317 314 314 313 313 312 313 311 309 309 309 308 308 308 307 307
305 305 305 305 305 305 305 304 304 304 305 305 305 305 304 305 305 306 307 308 309 311 313 314 320 323 323 319 315 315 316 317 314 313 314 314 312 310 309 309 308 308 306
306 305 304 304 304 304 304 304 304 304 304 304 304 304 304 304 305 306 307 307 308 309 310 312 314 316 319 319 317 316 315 317 320 316 314 316 317 312 310 309 308 308 307
306 305 305 304 304 304 304 304 303 303 304 304 304 304 304 304 305 306 306 306 306 307 308 309 310 312 313 316 316 316 315 315 318 319 314 314 313 312 310 309 308 308 307
305 305 304 305 304 304 303 303 303 303 303 303 304 304 304 304 304 304 304 303 304 304 305 307 308 308 311 311 313 313 315 315 311 311 316 314 311 311 310 313 310 308 308
305 305 305 304 303 303 302 302 302 302 302 302 303 303 303 303 304 304 304 303 303 303 304 305 307 308 308 309 310 311 312 312 312 310 310 314 316 314 312 311 313 310 309

GFSSE_850_thetae_045.txt.gz
Theta_e
343 325 325 329 336 339 332 342 336 335 342 343 339 322 323 338 341 342 339 339 341 341 342 338 343 344 343 344 341 341 342 341 340 335 330 333 336 336 338 341 337 333 329
343 333 324 326 328 332 331 347 340 342 338 333 327 321 324 329 337 340 342 340 341 343 343 338 336 344 345 342 341 340 339 338 336 336 341 340 340 341 339 338 338 335 333
341 344 326 325 325 328 332 346 333 326 329 327 324 317 317 335 332 334 338 341 339 341 341 337 338 342 332 337 334 334 335 337 338 340 342 343 341 339 338 339 338 336 335
341 344 348 326 325 325 345 339 324 323 325 330 321 313 312 315 321 331 336 337 341 338 339 340 340 342 339 341 340 335 334 334 335 341 344 343 342 338 339 335 337 339 338
341 343 337 327 326 324 323 322 322 322 324 325 319 313 310 311 313 319 318 320 335 337 336 340 337 340 338 341 341 341 337 337 338 342 342 341 343 341 337 336 338 338 336
342 343 326 327 329 329 328 326 324 325 326 324 320 314 310 310 310 311 313 314 315 320 333 335 338 339 340 339 338 340 340 338 341 341 342 342 342 337 335 334 334 336 338
342 342 328 324 330 331 332 332 329 328 328 324 320 315 312 311 311 311 311 311 311 312 318 324 334 337 340 340 337 338 341 339 340 339 338 340 339 335 338 335 331 330 334
342 342 343 333 334 334 335 335 333 336 332 331 326 319 315 312 311 311 311 310 310 310 310 314 325 332 335 337 338 337 339 337 341 338 337 337 330 324 329 330 329 328 330
343 343 343 344 336 339 337 331 328 329 335 332 332 326 319 315 312 311 311 310 310 311 310 309 316 324 330 332 334 335 337 338 339 338 336 338 334 325 327 334 334 331 327
345 344 342 342 344 347 347 339 338 331 328 324 325 330 328 321 317 312 311 311 311 311 311 310 310 316 324 333 331 333 334 337 338 338 337 336 330 330 334 336 334 332 328
344 345 343 342 341 344 346 349 344 342 337 331 331 329 327 331 334 328 321 312 311 311 311 311 310 310 315 323 321 329 333 338 338 336 336 335 330 324 328 332 330 333 336
331 331 332 336 344 346 346 346 347 346 346 345 343 342 340 337 337 333 323 317 313 312 311 311 311 311 310 317 334 329 317 335 337 334 335 335 329 325 321 320 321 323 331
325 326 326 329 332 336 345 346 345 346 344 344 344 343 342 340 338 335 332 329 326 322 314 314 312 311 315 321 325 327 328 331 333 334 333 333 327 323 320 319 319 317 320
320 320 321 324 328 336 337 343 344 343 344 343 342 343 342 342 341 338 335 332 329 327 324 322 320 316 311 311 314 321 324 328 330 331 332 332 325 321 318 318 317 314 315
315 315 316 318 322 327 334 338 339 342 342 342 342 342 341 341 340 341 339 336 332 328 326 323 320 319 316 312 314 315 317 322 327 329 330 330 325 317 316 314 312 310 309
312 311 311 311 313 317 320 323 326 329 334 338 340 340 340 339 339 339 339 338 338 333 328 325 321 318 317 316 314 313 314 316 321 324 326 326 316 311 311 311 310 309 307
310 309 309 309 309 310 310 312 314 315 319 321 322 325 330 335 337 338 338 339 337 337 334 328 324 320 317 316 315 313 313 313 315 319 320 318 312 309 308 308 308 308 307
310 309 309 309 309 309 309 309 310 310 310 311 312 314 315 317 321 325 330 334 336 335 336 331 326 322 319 317 316 314 313 312 312 315 317 316 311 311 310 308 307 307 307
309 309 309 309 308 308 309 309 308 308 309 308 309 309 308 310 311 312 316 321 324 327 331 332 331 329 322 319 318 316 315 313 312 312 314 314 311 309 309 309 308 307 307
308 308 308 308 308 308 308 308 308 308 307 307 307 307 307 308 309 310 310 312 315 318 321 324 328 330 328 322 319 318 316 314 313 312 312 313 312 310 309 308 309 309 308
308 308 307 307 307 307 307 307 306 306 306 307 307 307 307 306 307 307 309 309 310 311 314 318 320 323 329 327 321 319 317 316 315 313 313 312 312 311 310 309 308 308 309
308 308 307 307 306 306 306 306 306 306 305 305 305 306 306 306 306 306 307 308 309 309 310 311 314 318 318 325 324 321 319 318 317 316 314 313 312 311 311 310 309 309 308
308 308 307 307 306 306 306 306 305 305 305 305 305 305 306 306 305 305 306 307 307 307 308 309 310 312 315 315 321 321 317 318 321 319 318 315 313 312 312 313 311 310 309
308 308 307 306 306 306 305 305 305 304 304 304 304 304 305 305 305 305 306 306 305 305 305 306 307 309 310 313 315 316 319 318 316 320 319 317 315 314 313 313 313 311 310
306 307 307 307 306 305 304 304 303 303 303 303 303 303 304 304 305 305 305 305 305 305 304 305 305 306 308 309 311 314 315 316 317 314 314 319 316 314 313 312 312 310 310
307 307 307 306 304 304 303 303 302 302 302 302 303 303 303 303 304 304 304 304 305 305 304 304 304 305 306 308 308 310 312 313 313 314 315 315 313 313 315 313 311 311 311

GFSSE_850_thetae_048.txt.gz
Theta_e
340 324 327 330 342 334 332 345 332 339 337 335 325 319 320 332 338 341 339 337 340 343 339 337 343 343 343 341 341 340 339 338 332 331 334 337 338 338 338 337 334 333 330
341 325 324 326 328 329 334 348 332 333 326 324 323 317 327 329 332 338 341 338 341 342 340 334 335 336 344 342 341 338 337 336 338 342 343 340 338 339 338 336 334 333 333
344 328 324 323 324 327 334 345 329 322 322 323 319 312 314 320 325 326 331 339 337 338 340 335 342 335 341 340 336 333 335 337 339 342 344 342 340 338 336 336 335 334 333
344 340 328 325 325 329 342 341 325 322 324 322 316 311 311 313 318 325 322 331 338 335 337 337 341 341 341 341 339 333 333 335 343 344 344 342 341 338 337 338 337 334 333
342 347 344 328 327 326 328 324 323 323 325 324 319 313 310 310 312 316 318 319 328 327 333 338 337 339 338 341 340 338 336 339 340 340 340 339 341 338 334 337 334 337 334
342 343 328 327 329 329 329 327 325 325 326 324 320 315 311 310 311 311 312 314 315 316 332 332 337 338 337 337 337 340 338 340 339 340 340 339 341 337 336 333 331 332 335
342 342 326 328 331 330 331 331 330 328 328 327 322 318 315 311 311 311 311 310 310 311 315 321 332 337 336 338 335 335 340 340 338 338 337 335 337 336 337 334 330 327 330
341 343 332 326 327 327 327 330 332 329 330 330 331 324 319 315 311 311 311 310 310 310 310 311 318 329 335 335 338 335 338 337 340 338 336 336 332 322 326 328 328 327 327
342 342 342 343 340 335 328 327 329 328 324 324 328 330 327 321 317 312 311 311 310 310 311 310 310 318 326 332 331 334 335 337 338 337 337 336 336 325 320 330 332 330 325
342 340 342 343 343 345 336 337 343 343 335 328 324 322 324 328 326 325 315 312 311 311 310 311 310 311 315 322 334 327 331 333 337 338 335 336 335 327 335 334 333 332 329
342 341 341 340 340 345 348 342 345 344 344 344 342 340 335 329 330 335 330 324 315 312 311 310 311 311 311 313 319 316 320 331 336 338 335 336 335 330 322 331 329 328 334
330 331 336 339 342 339 343 345 345 344 344 344 344 343 342 340 337 337 334 331 327 320 313 311 311 310 310 310 312 331 330 319 330 333 336 335 335 333 325 320 323 324 326
323 323 324 328 333 337 337 341 343 342 344 343 344 343 343 342 340 339 337 334 332 327 326 322 318 314 311 311 321 326 327 324 332 329 331 332 333 331 325 321 319 319 317
317 317 318 322 326 335 340 338 341 342 342 342 342 342 341 341 341 341 339 336 335 333 329 325 323 321 319 315 312 314 318 324 327 331 332 331 329 326 321 319 318 317 316
313 312 312 315 317 321 324 325 326 331 336 338 339 340 340 340 339 339 339 339 337 335 333 329 325 321 320 318 316 313 315 320 323 328 330 330 331 327 320 315 315 315 312
310 310 309 310 310 311 312 313 313 318 319 321 324 327 334 337 338 338 337 337 337 337 335 333 328 325 320 318 317 315 314 314 318 323 326 328 327 321 314 311 311 312 310
310 309 309 309 309 309 309 309 310 309 310 310 312 314 315 314 318 325 330 335 336 336 336 336 332 327 324 319 317 316 314 314 312 317 321 322 320 313 311 309 309 309 309
310 310 309 309 309 309 309 309 309 309 309 308 308 309 309 308 308 308 310 317 321 325 327 332 335 332 326 323 319 318 316 314 313 312 315 318 316 312 310 310 309 308 308
309 309 309 308 308 308 308 308 308 308 307 307 307 307 307 307 307 307 307 307 309 315 316 318 321 330 331 329 324 320 318 316 314 313 312 315 316 313 310 309 309 309 308
308 308 308 308 307 307 307 307 306 305 305 306 305 305 306 306 306 306 306 306 306 308 310 313 316 316 325 330 329 325 320 319 317 314 313 312 314 313 312 310 309 309 309
308 308 308 307 307 306 306 306 305 304 305 304 303 304 304 305 305 305 304 305 306 308 308 309 310 312 313 312 323 329 326 322 319 316 315 313 312 313 312 311 309 309 309
309 309 308 307 307 306 306 306 305 305 305 304 303 304 305 305 305 305 305 305 306 307 307 308 308 309 311 313 311 315 324 324 324 318 317 315 314 312 312 312 311 309 309
309 309 308 308 307 306 306 305 305 304 303 303 303 303 303 303 304 305 305 305 305 305 306 306 306 307 308 309 312 312 319 319 320 321 320 319 315 315 312 312 312 311 310
308 308 308 307 307 307 306 305 304 303 302 302 303 302 303 303 303 304 305 305 305 305 305 305 305 305 306 307 310 312 312 314 318 318 320 319 317 314 315 312 312 312 313
307 307 307 307 307 306 305 304 303 302 302 302 302 302 302 302 302 303 303 303 304 304 305 305 305 304 304 304 305 308 309 311 311 314 317 319 318 317 314 314 313 312 313
307 307 307 307 305 304 304 303 303 302 302 302 302 301 301 301 302 302 303 303 303 304 304 304 305 305 304 304 305 306 308 311 312 311 312 314 315 318 317 314 313 312 312

GFSSE_850_thetae_051.txt.gz
Theta_e
341 325 328 330 336 329 339 342 334 332 325 324 320 317 322 331 338 340 336 339 341 338 334 340 343 343 340 340 339 338 334 332 336 339 338 338 337 336 334 333 332 331 328
342 325 326 327 333 329 342 345 329 325 323 323 317 317 332 328 332 336 339 335 340 338 333 334 333 340 341 340 338 336 335 340 341 342 340 339 337 337 334 333 332 331 329
335 325 324 325 328 329 342 344 325 322 323 320 313 312 315 320 322 323 331 339 337 337 336 341 335 340 336 338 332 335 337 339 341 344 343 339 340 337 335 333 331 330 329
342 328 326 325 327 340 340 334 325 322 323 320 315 310 311 313 317 320 319 332 335 335 339 337 341 339 341 339 333 333 340 340 341 341 341 339 340 337 338 335 332 331 329
343 343 343 327 326 329 327 322 322 322 324 322 318 312 310 310 311 315 315 318 322 322 333 337 338 338 338 339 338 334 340 339 338 339 338 338 340 336 335 332 330 333 329
341 343 329 324 327 327 325 324 324 323 324 323 320 316 312 310 311 311 312 312 313 313 327 330 335 337 337 336 337 337 339 338 338 338 336 337 339 338 335 332 328 327 330
342 329 326 327 326 328 329 328 328 327 325 327 325 321 317 313 310 311 310 310 310 310 312 318 326 332 334 336 335 338 339 338 337 337 336 332 333 333 335 334 330 324 328
338 339 341 337 339 331 324 322 325 324 324 328 329 330 324 320 315 311 311 310 310 310 310 310 312 322 330 332 336 335 339 338 338 336 337 336 332 331 320 327 327 325 326
340 342 342 342 342 339 331 334 339 339 334 327 323 325 327 327 324 320 313 311 311 310 310 310 310 312 320 326 329 332 335 336 339 336 336 336 335 334 324 324 332 329 325
337 339 337 339 344 343 343 345 343 339 341 341 336 340 338 331 329 331 329 321 316 312 311 310 310 310 312 316 322 332 324 331 338 338 338 336 333 333 327 333 332 332 330
342 339 332 331 333 337 344 343 342 342 344 343 342 342 341 339 337 336 334 327 328 327 317 312 310 310 310 311 312 316 314 318 331 336 336 334 334 335 333 323 330 328 332
336 339 339 330 334 337 342 343 343 342 342 341 342 342 343 342 338 337 338 336 334 330 327 322 314 312 311 310 310 311 322 325 319 334 337 335 334 335 333 325 320 324 324
329 329 326 329 331 338 339 341 343 344 343 344 343 343 342 342 341 340 338 336 334 333 334 331 324 322 318 314 312 313 318 323 323 328 330 332 335 333 328 327 321 317 317
318 318 319 321 325 332 336 336 333 335 340 341 339 339 341 341 340 340 340 339 337 334 331 331 331 325 323 321 319 315 314 320 324 326 327 331 331 329 326 321 318 317 316
313 311 312 314 315 316 317 316 318 321 324 328 332 335 337 337 337 338 338 337 338 338 335 332 332 328 326 322 320 319 316 313 319 324 325 328 329 330 328 325 318 315 314
310 309 309 310 310 310 310 310 310 310 310 311 312 313 314 317 323 331 333 335 336 336 337 337 335 333 330 325 321 318 317 316 314 319 322 326 328 328 324 321 315 313 312
310 309 309 309 309 309 309 309 309 309 309 309 308 308 308 308 308 308 308 310 317 325 330 332 335 336 332 327 323 319 317 316 315 314 317 320 323 325 322 318 313 310 311
309 309 309 309 308 308 309 309 308 308 308 307 307 307 306 306 306 305 305 306 306 307 308 310 313 319 329 333 327 324 320 317 316 314 313 315 317 319 319 315 312 310 309
309 309 308 308 308 308 307 307 306 305 304 304 304 303 303 304 305 304 304 304 303 303 305 307 308 309 308 312 326 331 329 322 320 317 315 313 313 315 316 315 313 310 309
308 308 308 308 308 307 306 305 305 304 303 303 303 302 302 303 304 303 303 304 304 304 304 305 306 308 309 309 308 316 325 328 328 321 317 315 313 313 314 315 314 311 310
308 308 308 308 308 306 305 305 305 304 303 303 302 301 301 302 303 302 303 304 304 304 305 305 307 307 307 309 309 307 306 312 325 327 320 317 316 313 312 313 313 313 311
308 308 309 308 308 306 305 306 306 305 303 303 302 302 302 302 302 303 303 304 305 305 305 305 305 306 306 306 308 309 310 309 305 317 325 321 317 315 313 313 312 312 312
309 309 309 309 308 306 306 306 305 304 303 302 302 302 301 301 302 302 302 302 303 305 305 305 305 305 305 304 305 307 311 314 313 313 320 320 321 319 316 314 313 313 312
309 308 308 307 307 307 306 305 304 303 303 302 302 301 301 301 301 301 301 302 302 302 303 303 304 304 305 305 304 305 308 312 312 313 309 312 319 317 315 313 313 314 314
308 308 307 307 307 306 305 304 304 303 303 302 301 301 301 301 300 300 301 301 301 303 303 303 304 304 305 305 305 304 303 304 308 310 312 310 306 310 318 314 312 312 313
308 308 307 307 306 305 305 304 304 303 302 301 301 300 300 300 300 300 300 300 300 301 302 303 302 303 304 305 305 304 304 304 305 308 310 311 311 305 306 315 316 312 312

GFSSE_850_thetae_054.txt.gz
Theta_e
339 327 334 336 333 336 343 336 334 326 323 320 316 322 325 335 340 336 336 340 337 333 336 340 341 339 339 338 338 333 332 337 339 338 337 337 337 333 332 331 329 327 322
341 326 329 337 332 333 345 342 326 325 323 318 314 329 325 324 336 336 335 337 338 333 335 331 340 340 338 338 336 335 339 340 342 340 338 338 336 333 331 329 328 327 323
327 325 326 332 328 339 336 339 324 322 321 315 311 312 316 320 321 326 334 336 335 335 338 336 338 334 335 333 334 336 338 340 342 342 340 338 338 336 331 329 326 326 323
329 328 326 324 325 341 333 328 322 322 322 318 313 310 311 314 317 317 321 331 329 332 336 339 337 340 338 333 334 337 337 338 339 339 339 337 339 335 337 328 329 326 326
340 338 330 326 325 325 321 320 320 321 323 321 317 312 310 311 312 313 314 318 317 324 333 334 337 336 339 337 332 338 337 336 337 337 337 337 339 336 335 330 328 329 327
340 325 324 325 325 326 326 325 324 323 323 322 321 317 313 310 311 311 311 311 311 312 325 329 333 336 335 337 337 338 337 338 338 336 335 335 337 337 335 332 325 325 327
336 335 330 328 327 327 329 330 328 327 327 328 328 324 319 315 311 310 310 310 310 310 311 317 323 329 332 335 335 337 338 337 337 336 336 335 329 328 330 332 331 324 328
337 340 331 331 332 326 326 337 335 328 323 323 326 328 328 323 318 314 311 310 310 310 310 310 310 316 323 329 335 335 338 338 338 336 335 336 335 333 326 323 328 326 326
341 342 340 342 343 340 337 342 342 339 337 331 328 333 328 325 327 330 325 315 314 311 310 310 310 310 314 321 327 333 336 338 340 338 335 335 335 334 331 321 328 330 325
339 340 343 341 336 343 343 343 343 344 342 341 338 340 338 336 332 331 334 330 328 327 319 311 310 310 310 312 316 325 327 332 338 337 336 336 336 333 332 326 331 331 329
332 334 336 335 336 339 345 344 342 343 344 343 341 341 342 341 338 336 337 335 333 332 331 324 316 311 310 310 311 312 315 313 329 337 335 333 332 332 333 332 323 325 328
328 330 329 332 336 339 342 343 343 342 341 341 342 342 342 341 339 338 338 336 335 333 333 333 329 322 316 312 310 311 312 320 321 325 335 333 331 331 331 331 328 320 322
321 321 324 329 340 341 342 341 340 342 342 341 341 340 339 340 338 339 340 338 337 334 333 332 332 329 324 322 318 314 314 318 320 318 322 329 331 332 333 329 325 323 317
320 318 317 319 322 325 326 327 326 328 330 335 337 335 337 336 338 340 340 340 340 338 335 334 333 332 330 326 323 320 319 315 319 322 323 324 325 329 330 327 324 320 318
315 313 313 314 314 313 313 312 313 313 314 315 317 319 320 321 326 331 332 332 332 334 336 336 333 332 333 331 328 323 320 318 315 317 323 326 326 327 328 327 325 323 317
311 310 310 310 310 310 310 310 309 309 309 309 309 308 308 308 308 308 308 310 314 321 327 330 334 336 335 331 330 328 323 319 317 315 318 318 324 326 328 329 326 321 317
310 309 309 309 309 309 309 309 309 308 308 307 306 305 304 304 304 304 304 304 305 305 307 309 313 320 327 331 334 329 325 321 318 316 315 314 315 320 326 327 326 322 315
310 309 309 309 309 308 308 307 306 305 304 304 303 303 302 302 303 304 303 303 303 303 303 304 305 305 306 307 312 327 329 324 321 318 316 315 314 313 317 322 323 321 317
309 309 309 308 308 307 306 305 305 304 303 303 303 303 302 302 302 303 302 302 303 303 304 303 303 304 304 304 305 306 308 322 329 326 321 317 316 314 313 313 316 317 316
308 308 308 308 308 307 306 305 305 304 304 303 303 302 302 301 301 301 301 301 302 304 304 304 304 304 306 306 306 305 304 305 308 323 328 327 323 316 314 312 313 314 314
308 308 308 308 308 308 306 305 305 304 304 303 303 302 301 301 301 301 301 301 301 302 303 304 305 304 304 305 305 304 304 303 303 304 314 323 326 319 317 314 312 312 313
308 308 308 308 308 308 307 305 305 304 304 303 303 302 301 301 301 301 300 300 300 301 301 303 305 305 304 304 305 304 305 305 305 310 313 317 321 325 321 317 313 312 313
309 308 309 308 308 308 307 306 305 305 304 303 303 302 301 300 300 300 300 300 300 301 301 301 303 303 304 304 304 305 305 307 307 307 305 307 316 316 320 321 317 312 312
309 309 309 308 307 307 307 306 305 305 304 303 302 302 300 300 299 299 299 299 299 299 299 301 302 303 302 303 304 305 304 304 304 305 305 305 305 307 310 314 316 316 313
309 309 308 307 307 307 307 306 305 304 304 303 302 301 300 299 299 299 298 298 299 299 300 300 301 301 302 302 302 304 305 305 304 304 305 304 305 303 303 306 307 314 313
309 308 308 308 307 307 306 305 304 304 303 302 301 300 299 299 298 298 298 298 298 299 299 300 300 301 301 301 301 301 301 304 304 304 304 304 304 304 304 306 306 306 311

GFSSE_850_thetae_057.txt.gz
Theta_e
341 333 334 333 334 331 342 335 325 322 321 319 334 323 335 338 337 334 339 337 331 333 336 340 338 338 340 338 332 332 338 339 338 338 336 336 332 330 329 327 326 323 315
340 327 336 332 329 338 347 341 323 322 320 313 316 322 323 335 336 333 334 337 335 334 330 338 340 336 338 337 333 337 339 341 341 339 338 337 335 330 327 324 324 324 314
327 325 337 325 326 336 331 336 321 321 317 313 310 312 317 318 323 336 334 334 333 337 338 336 334 336 333 333 333 336 339 341 341 341 340 336 336 336 328 326 324 324 320
330 328 326 324 323 333 324 322 320 321 321 317 311 310 311 313 315 316 322 325 327 333 338 336 337 336 333 332 333 335 336 336 336 339 337 334 338 337 332 327 326 324 323
330 326 323 325 327 332 325 321 321 322 323 320 316 312 310 311 311 312 313 315 313 323 333 333 336 338 338 333 332 335 333 333 336 335 334 335 337 337 334 328 324 325 324
329 327 326 328 329 329 329 328 327 325 324 324 321 318 313 311 311 310 310 310 310 312 321 327 330 335 336 336 334 337 335 337 337 334 333 331 330 334 334 332 325 322 325
334 329 328 328 326 327 329 328 326 327 329 330 330 327 320 316 312 310 310 310 309 310 310 314 318 326 333 335 336 337 337 337 336 335 332 334 335 327 324 320 328 325 325
339 340 332 336 328 326 337 339 333 332 327 324 327 328 328 324 320 319 314 311 311 310 310 309 309 311 318 328 334 335 337 337 337 336 335 334 333 333 331 320 322 326 324
341 341 337 342 341 340 339 341 341 341 335 333 335 335 330 325 328 330 330 329 328 327 319 310 310 310 312 318 327 334 336 336 337 338 337 335 334 334 332 326 326 329 322
340 339 341 343 339 343 343 342 342 343 342 341 340 339 340 337 333 334 333 331 328 328 329 322 316 310 310 311 315 322 331 335 336 337 337 335 335 334 332 331 327 329 328
338 338 338 338 338 341 342 343 341 342 343 341 340 340 342 342 340 337 336 335 334 332 332 331 328 322 314 311 310 312 315 324 326 334 336 335 332 331 331 332 331 324 324
332 331 332 334 336 338 342 343 343 342 341 340 340 340 339 340 339 338 338 338 336 336 333 333 332 329 324 320 315 310 311 314 319 319 329 335 332 330 331 327 328 327 320
325 326 331 335 339 341 339 339 338 337 337 336 335 336 336 336 336 335 336 336 337 337 336 333 332 331 332 327 322 321 317 314 318 321 318 324 332 327 331 329 329 326 324
319 320 320 322 327 331 330 328 326 325 324 327 329 330 329 330 330 330 332 333 337 339 338 336 332 331 331 331 330 328 322 320 318 316 321 321 323 326 327 330 328 326 322
314 313 313 313 313 313 312 311 310 310 309 309 309 309 309 308 310 312 314 318 323 323 325 330 333 336 335 332 330 330 330 327 321 318 315 321 324 325 326 328 328 327 324
311 310 310 310 310 309 309 309 309 308 308 307 306 305 304 304 304 304 305 305 305 305 306 309 316 321 324 327 334 332 330 329 327 322 318 316 319 319 322 326 328 329 327
310 310 310 309 309 309 308 308 307 306 304 304 303 303 303 302 303 303 303 303 303 303 303 303 303 305 306 308 310 316 326 329 328 324 319 317 315 315 315 317 325 328 328
310 309 309 309 308 308 307 305 305 304 303 303 304 303 302 302 301 302 302 302 301 302 302 303 303 303 303 303 303 304 306 310 324 327 322 319 316 315 314 314 317 323 324
310 310 309 309 308 307 306 305 305 304 304 304 304 304 303 302 302 301 301 301 301 301 302 302 303 303 303 303 304 303 303 304 305 308 323 326 320 317 316 315 313 315 317
309 309 309 308 309 309 307 305 305 305 305 304 304 304 303 302 301 301 301 300 300 300 300 301 301 303 304 304 304 304 303 303 303 303 303 306 324 326 320 317 316 314 315
309 308 308 309 308 308 308 307 305 305 305 304 304 303 303 301 300 300 300 300 300 299 299 300 300 301 302 304 304 304 303 303 303 303 304 305 305 313 326 326 319 316 313
309 308 308 308 308 308 308 307 307 306 305 305 304 303 303 302 300 299 299 299 299 299 299 299 300 300 301 303 303 303 303 304 304 309 311 311 311 313 317 322 324 319 316
309 308 308 308 309 308 307 307 306 306 305 305 304 304 303 302 301 299 299 298 298 298 298 298 299 299 300 301 302 302 304 305 304 304 304 303 303 303 307 311 315 319 320
309 309 308 309 308 307 307 307 306 306 306 305 304 303 303 302 301 299 298 298 297 297 297 298 298 299 300 300 300 301 302 302 303 305 304 304 304 302 302 304 305 306 314
309 309 309 309 308 307 307 307 306 306 305 304 303 303 302 302 300 298 298 297 297 297 297 298 298 298 299 300 300 301 301 301 301 301 302 304 304 304 303 302 302 303 307
309 309 309 308 307 307 307 306 306 305 304 303 303 302 302 301 299 298 297 297 297 297 297 297 297 298 298 298 300 300 300 300 300 301 301 302 304 304 304 303 302 302 304

GFSSE_850_thetae_060.txt.gz
Theta_e
338 330 328 330 332 332 342 332 320 319 316 325 319 330 336 337 333 337 337 332 331 332 340 338 340 340 343 332 332 337 338 338 338 337 336 334 328 325 322 322 323 315 319
336 325 334 329 327 340 346 340 320 319 313 311 313 319 324 335 335 331 336 336 336 333 335 339 337 337 338 333 336 336 339 340 340 340 336 336 335 330 324 321 322 321 314
324 323 329 328 326 336 329 330 319 320 317 312 310 312 315 318 330 336 330 331 332 337 335 335 334 334 334 335 336 336 339 339 338 339 337 334 337 334 328 323 322 323 322
330 326 328 327 332 336 327 324 320 322 321 316 311 310 311 313 314 315 320 322 325 334 337 335 336 334 332 332 335 334 333 332 332 333 333 332 338 336 331 324 321 323 330
333 330 327 327 332 333 327 323 322 323 322 319 316 312 310 311 311 311 312 312 312 324 332 333 336 337 336 332 333 334 332 335 336 334 326 333 331 335 332 329 322 321 323
328 326 326 327 329 329 330 329 328 326 327 327 323 318 315 312 310 310 310 309 309 312 320 325 330 335 335 335 333 337 335 336 336 334 330 329 329 326 322 319 325 324 323
331 330 329 327 328 328 329 326 326 328 328 328 329 328 323 318 315 312 310 310 309 309 309 311 315 324 334 334 334 336 337 337 336 335 334 333 332 331 328 322 320 323 321
336 332 331 334 328 334 337 336 335 337 325 326 328 327 325 326 326 325 316 316 316 314 310 309 309 310 316 329 333 334 336 337 337 337 335 335 333 333 332 328 319 326 321
338 335 335 341 340 339 339 341 340 339 335 338 338 339 337 328 330 331 330 328 327 327 324 314 311 310 311 316 325 333 334 335 336 336 336 336 334 333 333 331 328 327 325
340 339 339 342 340 342 343 342 341 341 342 342 340 340 340 339 338 334 334 332 330 328 329 328 325 317 311 310 313 321 329 332 332 333 333 335 334 329 333 332 330 327 327
338 339 340 341 339 337 338 343 340 341 341 339 340 340 340 339 338 338 337 337 334 335 333 333 332 328 323 317 312 311 315 320 329 328 329 332 334 330 331 332 331 329 324
334 333 335 334 336 336 338 341 341 340 339 337 336 335 335 336 336 337 334 335 335 335 335 334 333 333 332 329 323 319 312 312 315 316 320 322 330 330 332 332 328 330 327
330 331 332 335 338 340 339 337 337 337 335 335 333 332 330 331 330 331 332 335 335 335 335 334 331 332 331 331 332 330 323 320 316 315 318 321 319 329 332 331 331 329 328
325 325 328 332 334 334 333 328 324 321 319 318 317 316 317 317 319 324 324 322 324 326 327 330 333 333 331 331 331 331 331 330 325 320 318 316 320 322 323 331 330 329 325
318 316 315 314 314 314 313 311 309 309 308 308 307 306 305 304 304 305 306 307 309 312 315 316 322 325 327 329 332 332 331 330 330 330 326 320 316 321 323 324 329 332 328
313 312 311 310 310 309 309 308 308 307 305 304 303 303 303 303 303 303 303 303 303 303 303 304 304 305 306 310 316 321 327 331 330 328 328 326 320 316 319 321 323 326 331
310 310 310 309 308 308 308 307 305 304 303 303 304 304 303 303 302 302 302 302 302 302 302 302 302 303 303 303 303 304 306 312 319 326 328 328 324 319 316 316 316 319 325
310 309 309 308 308 307 306 305 304 304 304 304 304 304 304 303 302 301 301 301 301 301 301 301 301 302 302 302 303 303 303 303 304 307 318 327 325 320 317 316 314 314 315
310 309 309 308 308 307 305 305 305 305 305 304 304 304 304 303 302 301 300 300 300 300 300 300 300 300 301 301 302 302 303 303 303 303 303 305 315 325 322 318 315 314 314
310 309 308 308 308 308 308 306 305 305 305 305 305 305 304 304 303 302 300 300 300 300 300 299 299 299 299 300 300 301 301 302 303 303 303 303 303 304 314 325 322 317 316
309 309 308 308 308 308 308 308 307 306 306 305 305 305 305 304 304 303 302 300 299 299 299 299 299 299 299 299 299 300 301 301 302 303 303 303 303 306 306 309 320 324 319
309 309 308 308 308 308 308 307 307 306 306 306 306 305 304 304 304 303 302 300 299 299 298 298 298 298 298 298 299 300 301 301 303 307 308 309 308 308 309 309 314 318 323
309 308 308 308 308 309 308 307 307 306 306 306 306 305 304 303 303 303 302 299 298 298 297 297 297 297 297 298 298 300 301 302 301 301 302 302 302 303 303 303 304 310 313
309 308 308 308 308 308 308 306 306 306 306 306 305 304 304 303 303 302 301 298 298 297 297 297 297 297 297 297 298 298 299 300 300 300 300 301 301 302 302 302 302 302 306
309 308 308 308 308 308 307 306 306 306 306 305 304 303 303 303 303 302 299 297 297 297 296 296 296 296 296 297 297 297 298 299 299 300 300 300 301 301 301 303 303 303 302
309 308 308 308 308 307 306 306 306 306 305 304 303 303 303 302 301 299 297 297 296 296 296 296 296 296 296 296 297 297 298 297 297 298 298 299 300 300 300 300 303 303 303